STARLINK-31295, 59095

Orbit data source: Space-Track

STARLINK-31295, 59095 is a payload satellite owned by SpaceX/Seattle (US) in LEO that was launched on Thu, 29 Feb 2024 UTC via an FALCON 9 launch vehicle from the Air Force Eastern Test Range (AFETR). Payload-class satellites include a variety of spacecraft equipped with specific instruments for various scientific and technological missions. These include communications satellites like Starlink; space stations such as the ISS; scientific satellites like the Hubble; Earth observation satellites from companies like Planet Labs, Umbra, and HawkEye 360; GPS; miniature CubeSats for education and research; and military/defense satellites.

Loading next visibility...
Identifier
59095, 2024-041X
Orbit
LEO
Country
Flag of USUS
Related business
Manufacturer
SpaceX/Seattle
Mission
Operational Commercial Communications
Bus & Motor
STARLINK V2M, Unknown motor
Mass
730 kg wet, ~700 kg dry
Launch date (UTC)
2024-02-29 (2 years ago)
Launch vehicle
FALCON 9
Launch site
Air Force Eastern Test Range (AFETR)
Object type
Payload
Rocket body
Debris
Shape & HBR
Box + 2 Pan, 17.7 m
Radar Cross Section
33.884 m², Large (>1 m²)

Expand to show TLE details & history
Last TLE update: 2 days ago

TLE from 2 days ago
0 STARLINK-31295
1 59095U 24041X   26170.96602100  .00001145  00000-0  51144-4 0  9999
2 59095  43.0061  93.0727 0001538 273.2881  86.7794 15.27576509129910
Epoch: 2026-06-19T23:11Z
TLE epoch observation values (Epoch: 2026-06-19T23:11:04.214Z)
Latitude
-0.00007°
Longitude
-162.88235°
Altitude
482.777 km
Speed
7.626 km/s
True Right ascension
06h 12m 17s
True Declination
0° 00' 00"
Sunlit
Object was in daylight at epoch
Visualization orbit readout
Latitude
Unknown
Longitude
Unknown
Altitude
Unknown
Speed
Unknown
Apparent Right ascension
Unknown
Apparent Declination
Unknown
Sunlit
N/A
Visualization observer readout
Local Sidereal Time
21:30:31
Azimuth
Unknown
Elevation
Unknown
Doppler factor
Unknown
Orbital elements
Apogee altitude
486.059 km
Perigee altitude
483.948 km
Semi-major axis
6,863.141 km
Eccentricity
0.00015
Inclination
43.0061°
RAAN
93.0727°
Arg. of periapsis
273.2881°
True anomaly
86.797°
Mean anomaly
86.7794°
Eccentric anomaly
86.7882°
Mean motion
3.81732 °/min
Orbital period
94.31 mins
BSTAR
0.000051144
Loading maneuver chart data...
Computing Atmospheric mass density...
Loading historical data...
Loading historical data...
Loading historical data...
Loading historical data...
Loading historical data...
Loading historical data...
Loading historical data...

Documentation

Showing up to 5 results
|